Change the Weather History Date:

Monday, December 2, 2013

  Actual Average (KTUL) Record (KTUL)
Temperature  
Mean Temperature 50 °F 43 °F  
Max Temperature 59 °F 53 °F 76 °F (1956)
Min Temperature 41 °F 33 °F 9 °F (2006)
Degree Days  
Heating Degree Days 15 22  
Month to date heating degree days 44  
Since 1 July heating degree days 680  
Moisture  
Dew Point 46 °F    
Average Humidity 89    
Maximum Humidity 100    
Minimum Humidity 64    
Precipitation  
Precipitation 0.00 in 0.08 in 1.40 in (1913)
Month to date precipitation 0.17  
Year to date precipitation 38.65  
Sea Level Pressure  
Sea Level Pressure 29.77 in    
Wind  
Wind Speed 1 mph (South)    
Max Wind Speed 7 mph    
Max Gust Speed -    
Visibility 5 miles    
Events Fog    
T = Trace of Precipitation, MM = Missing Value Source: NWS Daily Summary

Daily Weather History Graph

Daily Weather History Graph

Search for Another Location

Airport or City:

Trip Planner

Search our weather history database for the weather conditions in past years. The results will help you decide how hot, cold, wet, or windy it might be!

Date:

Astronomy

Dec. 02, 2013 Rise Set
Actual Time 7:17 AM CST 5:09 PM CST
Civil Twilight 6:49 AM CST 5:37 PM CST
Nautical Twilight 6:17 AM CST 6:09 PM CST
Astronomical Twilight 5:46 AM CST 6:40 PM CST
Moon 6:44 AM CST (12/2) 5:12 PM CST (12/2)
Length of Visible Light 10h 48m
Length of Day
9h 52m
Waning Crescent, 0% of the Moon is Illuminated
Dec 2
Waning Crescent
Dec 2
New
Dec 9
First Quarter
Dec 17
Full
Dec 25
Last Quarter

Hourly Weather History & Observations

Time (CST) Temp. Windchill Dew Point Humidity Pressure Visibility Wind Dir Wind Speed Gust Speed Precip Events Conditions
12:19 AM 50.0 °F - 48.2 °F 94% 29.89 in 2.5 mi Calm Calm - N/A   Overcast
12:36 AM 50.0 °F - 48.2 °F 94% 29.89 in 3.0 mi Calm Calm - N/A   Overcast
12:53 AM 50.0 °F - 48.0 °F 93% 29.90 in 4.0 mi North 3.5 mph - N/A   Overcast
1:08 AM 50.0 °F - 48.2 °F 94% 29.88 in 4.0 mi Calm Calm - N/A   Overcast
1:51 AM 48.2 °F - 48.2 °F 100% 29.87 in 2.5 mi Calm Calm - N/A   Overcast
1:53 AM 48.9 °F - 48.0 °F 97% 29.88 in 2.5 mi Calm Calm - N/A   Overcast
2:02 AM 48.2 °F - 46.4 °F 93% 29.87 in 3.0 mi Calm Calm - N/A   Overcast
2:53 AM 48.9 °F - 48.0 °F 97% 29.87 in 2.5 mi Calm Calm - N/A   Overcast
3:11 AM 48.2 °F - 48.2 °F 100% 29.86 in 3.0 mi Calm Calm - N/A   Overcast
3:23 AM 48.2 °F - 48.2 °F 100% 29.85 in 4.0 mi Calm Calm - N/A   Overcast
3:53 AM 48.9 °F - 46.9 °F 93% 29.85 in 4.0 mi Calm Calm - N/A   Overcast
4:53 AM 48.9 °F - 46.9 °F 93% 29.84 in 4.0 mi Calm Calm - N/A   Overcast
5:29 AM 48.2 °F - 46.4 °F 93% 29.82 in 3.0 mi Calm Calm - N/A   Overcast
5:53 AM 48.9 °F - 46.9 °F 93% 29.82 in 4.0 mi Calm Calm - N/A   Overcast
6:41 AM 46.4 °F - 46.4 °F 100% 29.80 in 2.5 mi Calm Calm - N/A   Overcast
6:53 AM 46.9 °F - 46.0 °F 97% 29.82 in 2.5 mi Calm Calm - N/A   Overcast
7:02 AM 46.4 °F - 46.4 °F 100% 29.80 in 3.0 mi Calm Calm - N/A   Overcast
7:38 AM 48.2 °F - 46.4 °F 93% 29.80 in 2.5 mi Calm Calm - N/A   Overcast
7:53 AM 48.9 °F - 46.9 °F 93% 29.82 in 2.5 mi SW 3.5 mph - N/A   Overcast
8:27 AM 48.2 °F - 46.4 °F 93% 29.80 in 3.0 mi Calm Calm - N/A   Overcast
8:53 AM 50.0 °F - 48.0 °F 93% 29.81 in 4.0 mi South 4.6 mph - N/A   Overcast
9:17 AM 51.8 °F - 46.4 °F 82% 29.80 in 6.0 mi South 6.9 mph - N/A   Overcast
9:53 AM 52.0 °F - 46.9 °F 83% 29.81 in 7.0 mi SSW 5.8 mph - N/A   Overcast
10:53 AM 52.0 °F - 48.0 °F 86% 29.81 in 7.0 mi SW 4.6 mph - N/A   Overcast
11:42 AM 53.6 °F - 48.2 °F 82% 29.78 in 9.0 mi Variable 4.6 mph - N/A   Overcast
11:53 AM 54.0 °F - 48.0 °F 80% 29.79 in 9.0 mi SW 5.8 mph - N/A   Overcast
12:53 PM 57.0 °F - 48.9 °F 74% 29.75 in 10.0 mi South 5.8 mph - N/A   Mostly Cloudy
1:01 PM 57.2 °F - 48.2 °F 72% 29.74 in 10.0 mi Variable 5.8 mph - N/A   Mostly Cloudy
1:14 PM 57.2 °F - 48.2 °F 72% 29.73 in 10.0 mi South 5.8 mph - N/A   Scattered Clouds
1:53 PM 57.9 °F - 48.0 °F 70% 29.70 in 10.0 mi South 6.9 mph - N/A   Clear
2:53 PM 57.9 °F - 48.0 °F 70% 29.69 in 10.0 mi South 4.6 mph - N/A   Clear
3:53 PM 59.0 °F - 46.9 °F 64% 29.69 in 10.0 mi South 5.8 mph - N/A   Clear
4:53 PM 55.0 °F - 46.0 °F 72% 29.68 in 10.0 mi Calm Calm - N/A   Clear
5:53 PM 51.1 °F - 45.0 °F 80% 29.69 in 10.0 mi South 4.6 mph - N/A   Clear
6:53 PM 48.9 °F - 45.0 °F 86% 29.70 in 10.0 mi SSW 3.5 mph - N/A   Clear
7:53 PM 45.0 °F - 43.0 °F 93% 29.69 in 7.0 mi Calm Calm - N/A   Clear
8:53 PM 42.1 °F - 39.9 °F 92% 29.69 in 4.0 mi Calm Calm - N/A   Clear
9:30 PM 42.8 °F - 41.0 °F 93% 29.68 in 1.8 mi Calm Calm - N/A   Clear
9:38 PM 42.8 °F - 39.2 °F 87% 29.68 in 2.5 mi Calm Calm - N/A   Clear
9:39 PM 42.8 °F - 39.2 °F 87% 29.68 in 5.0 mi Calm Calm - N/A   Clear
9:53 PM 41.0 °F - 39.0 °F 93% 29.70 in 1.8 mi Calm Calm - N/A   Clear
10:04 PM 42.8 °F - 41.0 °F 93% 29.68 in 2.0 mi Calm Calm - N/A   Clear
10:11 PM 42.8 °F - 41.0 °F 93% 29.68 in 0.8 mi Calm Calm - N/A   Clear
10:28 PM 41.0 °F - 39.2 °F 93% 29.68 in 1.8 mi Calm Calm - N/A   Clear
10:53 PM 42.1 °F - 41.0 °F 96% 29.69 in 1.0 mi Calm Calm - N/A   Clear
11:03 PM 42.8 °F - 41.0 °F 93% 29.68 in 0.5 mi Calm Calm - N/A Fog Fog
11:53 PM 45.0 °F 43.5 °F 45.0 °F 100% 29.68 in 0.2 mi SSE 3.5 mph - N/A Fog Fog